This demonstration page uses our WeatherBlox Daily Observations layout. Learn more.

Left ArrowRight Arrow

39.01783, -85.05884

Hourly Observations for February 19, 2017

Temp ( °F °C ) Dew Point ( °F °C ) Humidity (%) Winds ( mph kmh ) Pressure ( in mb ) Visibility ( mi km ) Precip ( " mm )
12:52 am 00:52 Cloudy 51 10.6 47 8.3 86 86 WSW 8 13 29.92 1013 10 16 0.00 0.00
1:52 am 01:52 Cloudy 50 10 46 7.8 86 86 WSW 7 11 29.91 1013 10 16 0.00 0.00
2:06 am 02:06 Mostly Cloudy 48 9 46 8 94 94 WSW 5 7 29.94 1014 10 16 0.00 0.00
2:37 am 02:37 Partly Cloudy 49 9.4 45 7.2 86 86 SW 7 11 29.94 1014 10 16 0.00 0.00
2:52 am 02:52 Clear 49 9.4 45 7.2 86 86 SW 6 9 29.93 1013 10 16 0.00 0.00
3:52 am 03:52 Clear 47 8.3 45 7.2 93 93 SW 5 7 29.93 1014 9 14 0.00 0.00
4:52 am 04:52 Partly Cloudy with Mist and Fog 47 8.3 45 7.2 93 93 SW 8 13 29.95 1014 6 10 0.00 0.00
5:08 am 05:08 Mostly Cloudy with Mist and Fog 48 8.9 46 7.8 93 93 WSW 7 11 29.97 1015 6 10 0.00 0.00
5:52 am 05:52 Cloudy 48 8.9 46 7.8 93 93 W 9 15 30.00 1016 7 11 0.00 0.00
6:52 am 06:52 Cloudy 48 8.9 46 7.8 93 93 WSW 6 9 30.00 1016 7 11 0.00 0.00
7:52 am 07:52 Cloudy with Mist and Fog 48 8.9 46 7.8 93 93 WSW 8 13 30.04 1017 5 8 0.00 0.00
8:52 am 08:52 Cloudy with Mist and Fog 49 9.4 47 8.3 93 93 W 8 13 30.04 1017 5 8 0.00 0.00
9:52 am 09:52 Cloudy 49 9.4 46 7.8 90 90 WSW 7 11 30.08 1019 7 11 0.00 0.00
10:52 am 10:52 Cloudy 50 10 46 7.8 86 86 W 8 13 30.10 1019 7 11 0.00 0.00
11:52 am 11:52 Cloudy 50 10 47 8.3 89 89 WSW 5 7 30.11 1020 7 11 0.00 0.00
12:52 pm 12:52 Cloudy 52 11.1 46 7.8 80 80 WSW 3 6 30.09 1019 8 13 0.00 0.00
1:52 pm 13:52 Cloudy 55 12.8 47 8.3 74 74 W 6 9 30.08 1019 8 13 0.00 0.00
2:28 pm 14:28 Mostly Cloudy 57 13.9 47 8.3 69 69 NW 6 9 30.09 1019 10 16 0.00 0.00
2:43 pm 14:43 Partly Cloudy 58 14.4 48 8.9 70 70 VRB 7 11 30.09 1019 10 16 0.00 0.00
2:52 pm 14:52 Partly Cloudy 58 14.4 47 8.3 67 67 SW 9 15 30.08 1019 10 16 0.00 0.00
3:52 pm 15:52 Mostly Sunny 60 15.6 47 8.3 62 62 Calm 30.09 1019 9 14 0.00 0.00
4:52 pm 16:52 Mostly Sunny 59 15 47 8.3 64 64 WSW 6 9 30.10 1019 10 16 0.00 0.00
5:52 pm 17:52 Mostly Sunny 56 13.3 47 8.3 72 72 SSW 8 13 30.11 1020 10 16 0.00 0.00
6:52 pm 18:52 Mostly Clear 50 10 46 7.8 86 86 S 7 11 30.13 1020 7 11 0.00 0.00
7:52 pm 19:52 Clear with Mist and Fog 48 8.9 45 7.2 89 89 S 6 9 30.13 1020 6 10 0.00 0.00
8:52 pm 20:52 Clear with Mist and Fog 47 8.3 45 7.2 93 93 SSE 5 7 30.14 1021 5 8 0.00 0.00
9:52 pm 21:52 Clear with Mist and Fog 46 7.8 45 7.2 96 96 S 5 7 30.15 1021 4 6 0.00 0.00
10:52 pm 22:52 Clear with Mist and Fog 42 5.6 41 5 96 96 S 3 6 30.16 1022 4 6 0.00 0.00
11:37 pm 23:37 Partly Cloudy with Mist and Fog 42 5.6 42 5.6 100 100 SSE 3 6 30.18 1022 4 6 0.00 0.00
11:52 pm 23:52 Mostly Clear with Mist and Fog 42 5.6 42 5.6 100 100 S 5 7 30.16 1022 4 6 0.00 0.00

Powered by AerisWeather